| time (UTC) | temp F | wind direction | speed MPH | gust MPH | rain 1hr in | rain 24hr in | rain mn in | humidity % | barometer mb |
| 20260901104046 | 76 | 52 | 1.0 | 3.0 | 0.00 | 0.00 | 0.00 | 89 | 1016.8 |
| 20260901103545 | 76 | 52 | 1.0 | 3.0 | 0.00 | 0.00 | 0.00 | 89 | 1016.8 |
| 20260901103104 | 76 | 52 | 0.0 | 3.0 | 0.00 | 0.00 | 0.00 | 89 | 1016.8 |
| 20260901102545 | 76 | 52 | 1.0 | 3.0 | 0.00 | 0.00 | 0.00 | 89 | 1016.8 |
| 20260901102047 | 76 | 53 | 1.0 | 3.0 | 0.00 | 0.00 | 0.00 | 89 | 1016.7 |
| 20260901101616 | 76 | 53 | 0.0 | 2.0 | 0.00 | 0.00 | 0.00 | 89 | 1016.7 |
| 20260901101046 | 76 | 0 | 0.0 | 3.0 | 0.00 | 0.00 | 0.00 | 89 | 1016.6 |
| 20260901100546 | 76 | 53 | 1.0 | 3.0 | 0.00 | 0.00 | 0.00 | 89 | 1016.6 |
| 20260901100115 | 76 | 53 | 1.0 | 4.0 | 0.00 | 0.00 | 0.00 | 89 | 1016.7 |
| 20260901095546 | 76 | 53 | 1.0 | 4.0 | 0.00 | 0.00 | 0.00 | 89 | 1016.7 |
| 20260901095046 | 76 | 53 | 1.0 | 4.0 | 0.00 | 0.00 | 0.00 | 89 | 1016.7 |
| 20260901094600 | 76 | 53 | 1.0 | 3.0 | 0.00 | 0.00 | 0.00 | 89 | 1016.7 |
| 20260901094045 | 76 | 53 | 1.0 | 3.0 | 0.00 | 0.00 | 0.00 | 89 | 1016.5 |
| 20260901093548 | 76 | 53 | 1.0 | 3.0 | 0.00 | 0.00 | 0.00 | 89 | 1016.5 |
| 20260901093107 | 76 | 53 | 0.0 | 2.0 | 0.00 | 0.00 | 0.00 | 89 | 1016.5 |
| 20260901092547 | 76 | 0 | 1.0 | 2.0 | 0.00 | 0.00 | 0.00 | 89 | 1016.6 |
| 20260901092046 | 76 | 53 | 1.0 | 2.0 | 0.00 | 0.00 | 0.00 | 88 | 1016.5 |
| 20260901091557 | 76 | 53 | 1.0 | 2.0 | 0.00 | 0.00 | 0.00 | 88 | 1016.6 |
| 20260901091043 | 76 | 53 | 1.0 | 2.0 | 0.00 | 0.00 | 0.00 | 88 | 1016.6 |
| 20260901090546 | 76 | 53 | 0.0 | 2.0 | 0.00 | 0.00 | 0.00 | 88 | 1016.6 |
| 20260901090109 | 76 | 0 | 0.0 | 3.0 | 0.00 | 0.00 | 0.00 | 88 | 1016.6 |
| 20260901085547 | 76 | 53 | 1.0 | 3.0 | 0.00 | 0.00 | 0.00 | 88 | 1016.6 |
| 20260901085044 | 76 | 53 | 1.0 | 3.0 | 0.00 | 0.00 | 0.00 | 88 | 1016.6 |
| 20260901084601 | 76 | 53 | 1.0 | 3.0 | 0.00 | 0.00 | 0.00 | 88 | 1016.5 |
| 20260901084045 | 77 | 53 | 1.0 | 3.0 | 0.00 | 0.00 | 0.00 | 88 | 1016.4 |
| 20260901083545 | 77 | 53 | 1.0 | 3.0 | 0.00 | 0.00 | 0.00 | 88 | 1016.5 |
| 20260901083058 | 77 | 53 | 1.0 | 3.0 | 0.00 | 0.00 | 0.00 | 88 | 1016.5 |
| 20260901082545 | 76 | 53 | 1.0 | 3.0 | 0.00 | 0.00 | 0.00 | 88 | 1016.5 |
| 20260901082048 | 76 | 53 | 0.0 | 3.0 | 0.00 | 0.00 | 0.00 | 88 | 1016.5 |
| 20260901081605 | 76 | 53 | 0.0 | 3.0 | 0.00 | 0.00 | 0.00 | 88 | 1016.5 |
| 20260901081044 | 76 | 53 | 1.0 | 3.0 | 0.00 | 0.00 | 0.00 | 88 | 1016.5 |
| 20260901080546 | 76 | 53 | 1.0 | 3.0 | 0.00 | 0.00 | 0.00 | 88 | 1016.6 |
| 20260901080105 | 77 | 52 | 1.0 | 3.0 | 0.00 | 0.00 | 0.00 | 88 | 1016.6 |
| 20260901075544 | 76 | 52 | 0.0 | 2.0 | 0.00 | 0.00 | 0.00 | 88 | 1016.6 |
| 20260901075045 | 77 | 52 | 0.0 | 2.0 | 0.00 | 0.00 | 0.00 | 88 | 1016.6 |
| 20260901074604 | 77 | 0 | 0.0 | 2.0 | 0.00 | 0.00 | 0.00 | 87 | 1016.7 |
| 20260901074045 | 77 | 52 | 1.0 | 2.0 | 0.00 | 0.00 | 0.00 | 87 | 1016.7 |
| 20260901073545 | 77 | 0 | 0.0 | 3.0 | 0.00 | 0.00 | 0.00 | 87 | 1016.8 |
| 20260901073103 | 77 | 0 | 0.0 | 3.0 | 0.00 | 0.00 | 0.00 | 87 | 1016.8 |
| 20260901072544 | 77 | 52 | 1.0 | 4.0 | 0.00 | 0.00 | 0.00 | 87 | 1016.8 |
| 20260901072048 | 78 | 53 | 1.0 | 4.0 | 0.00 | 0.00 | 0.00 | 87 | 1016.8 |
| 20260901071557 | 78 | 52 | 2.0 | 4.0 | 0.00 | 0.00 | 0.00 | 87 | 1016.9 |
| 20260901071048 | 78 | 72 | 2.0 | 4.0 | 0.00 | 0.00 | 0.00 | 87 | 1016.8 |
| 20260901070549 | 78 | 86 | 2.0 | 4.0 | 0.00 | 0.00 | 0.00 | 87 | 1016.9 |
| 20260901070100 | 78 | 88 | 1.0 | 4.0 | 0.00 | 0.00 | 0.00 | 88 | 1016.8 |
| 20260901065549 | 78 | 88 | 2.0 | 4.0 | 0.00 | 0.00 | 0.00 | 88 | 1016.8 |
| 20260901065045 | 78 | 90 | 1.0 | 3.0 | 0.00 | 0.00 | 0.00 | 88 | 1016.9 |
| 20260901064559 | 78 | 90 | 1.0 | 4.0 | 0.00 | 0.00 | 0.00 | 87 | 1016.9 |
| 20260901064047 | 78 | 90 | 1.0 | 4.0 | 0.00 | 0.00 | 0.00 | 87 | 1017.1 |
| 20260901063547 | 78 | 88 | 2.0 | 4.0 | 0.00 | 0.00 | 0.00 | 87 | 1017.2 |
| 20260901063058 | 78 | 86 | 2.0 | 4.0 | 0.00 | 0.00 | 0.00 | 87 | 1017.1 |
| 20260901062545 | 78 | 92 | 1.0 | 3.0 | 0.00 | 0.00 | 0.00 | 87 | 1017.1 |
| 20260901062047 | 78 | 92 | 1.0 | 4.0 | 0.00 | 0.00 | 0.00 | 87 | 1017.1 |
| 20260901061559 | 78 | 92 | 1.0 | 4.0 | 0.00 | 0.00 | 0.00 | 87 | 1017.1 |
| 20260901061044 | 78 | 92 | 2.0 | 4.0 | 0.00 | 0.00 | 0.00 | 87 | 1017.1 |
| 20260901060546 | 78 | 98 | 1.0 | 3.0 | 0.00 | 0.00 | 0.00 | 87 | 1017.1 |
| 20260901060104 | 78 | 188 | 1.0 | 2.0 | 0.00 | 0.00 | 0.00 | 88 | 1017.1 |
| 20260901055544 | 78 | 198 | 0.0 | 2.0 | 0.00 | 0.00 | 0.00 | 88 | 1017.2 |
| 20260901055046 | 78 | 198 | 0.0 | 3.0 | 0.00 | 0.00 | 0.00 | 88 | 1017.2 |
| 20260901054602 | 78 | 197 | 0.0 | 3.0 | 0.00 | 0.00 | 0.00 | 88 | 1017.2 |
| 20260901054045 | 78 | 197 | 2.0 | 3.0 | 0.00 | 0.00 | 0.00 | 88 | 1017.2 |
| 20260901053546 | 78 | 197 | 1.0 | 2.0 | 0.00 | 0.00 | 0.00 | 88 | 1017.3 |
| 20260901053123 | 78 | 0 | 0.0 | 2.0 | 0.00 | 0.00 | 0.00 | 88 | 1017.2 |
| 20260901052544 | 78 | 198 | 0.0 | 2.0 | 0.00 | 0.00 | 0.00 | 88 | 1017.3 |
| 20260901052046 | 78 | 198 | 0.0 | 1.0 | 0.00 | 0.00 | 0.00 | 88 | 1017.2 |
| 20260901051610 | 78 | 0 | 0.0 | 2.0 | 0.00 | 0.00 | 0.00 | 88 | 1017.3 |
| 20260901051045 | 78 | 0 | 0.0 | 2.0 | 0.00 | 0.00 | 0.00 | 88 | 1017.3 |
| 20260901050545 | 78 | 197 | 1.0 | 2.0 | 0.00 | 0.00 | 0.00 | 88 | 1017.4 |
| 20260901050057 | 78 | 0 | 0.0 | 0.0 | 0.00 | 0.00 | 0.00 | 88 | 1017.3 |
| 20260901045544 | 78 | 0 | 0.0 | 0.0 | 0.00 | 0.00 | 0.00 | 88 | 1017.3 |
| 20260901045046 | 78 | 0 | 0.0 | 0.0 | 0.00 | 0.00 | 0.00 | 88 | 1017.4 |
| 20260901044618 | 78 | 0 | 0.0 | 0.0 | 0.00 | 0.00 | 0.00 | 87 | 1017.4 |
| 20260901044044 | 78 | 0 | 0.0 | 2.0 | 0.00 | 0.00 | 0.00 | 87 | 1017.5 |
| 20260901043545 | 78 | 0 | 0.0 | 2.0 | 0.00 | 0.00 | 0.00 | 87 | 1017.6 |
| 20260901043117 | 78 | 0 | 1.0 | 2.0 | 0.00 | 0.00 | 0.00 | 87 | 1017.6 |
| 20260901042545 | 78 | 196 | 0.0 | 2.0 | 0.00 | 0.00 | 0.00 | 87 | 1017.5 |
| 20260901042044 | 78 | 192 | 0.0 | 2.0 | 0.00 | 0.00 | 0.00 | 87 | 1017.6 |
| 20260901041556 | 78 | 192 | 0.0 | 2.0 | 0.00 | 0.00 | 0.00 | 86 | 1017.5 |
| 20260901041045 | 78 | 0 | 0.0 | 2.0 | 0.00 | 0.00 | 0.00 | 87 | 1017.5 |
| 20260901040545 | 78 | 0 | 0.0 | 0.0 | 0.00 | 0.00 | 0.00 | 87 | 1017.5 |
| 20260901040100 | 78 | 0 | 0.0 | 0.0 | 0.00 | 0.00 | 0.00 | 87 | 1017.6 |
| 20260901035547 | 78 | 0 | 0.0 | 1.0 | 0.00 | 0.00 | 0.00 | 86 | 1017.5 |
| 20260901035045 | 78 | 0 | 0.0 | 2.0 | 0.00 | 0.00 | 0.00 | 86 | 1017.4 |
| 20260901034606 | 79 | 0 | 0.0 | 2.0 | 0.00 | 0.00 | 0.00 | 86 | 1017.5 |
| 20260901034044 | 79 | 188 | 1.0 | 2.0 | 0.00 | 0.00 | 0.00 | 86 | 1017.6 |
| 20260901033544 | 79 | 175 | 0.0 | 1.0 | 0.00 | 0.00 | 0.00 | 86 | 1017.7 |
| 20260901033057 | 79 | 0 | 0.0 | 0.0 | 0.00 | 0.00 | 0.00 | 86 | 1017.6 |
| 20260901032547 | 79 | 0 | 0.0 | 0.0 | 0.00 | 0.00 | 0.00 | 86 | 1017.5 |
| 20260901032047 | 79 | 0 | 0.0 | 0.0 | 0.00 | 0.00 | 0.00 | 86 | 1017.7 |
| 20260901031601 | 79 | 0 | 0.0 | 0.0 | 0.00 | 0.00 | 0.00 | 86 | 1017.7 |
| 20260901031044 | 79 | 0 | 0.0 | 0.0 | 0.00 | 0.00 | 0.00 | 86 | 1017.7 |
| 20260901030549 | 79 | 0 | 0.0 | 0.0 | 0.00 | 0.00 | 0.00 | 85 | 1017.7 |
| 20260901025544 | 79 | 0 | 0.0 | 0.0 | 0.00 | 0.00 | 0.00 | 85 | 1017.8 |
| 20260901025047 | 79 | 0 | 0.0 | 0.0 | 0.00 | 0.00 | 0.00 | 85 | 1017.7 |
| 20260901024603 | 79 | 0 | 0.0 | 1.0 | 0.00 | 0.00 | 0.00 | 85 | 1017.8 |
| 20260901024044 | 79 | 0 | 0.0 | 1.0 | 0.00 | 0.00 | 0.00 | 85 | 1017.8 |
| 20260901023546 | 80 | 0 | 0.0 | 1.0 | 0.00 | 0.00 | 0.00 | 85 | 1017.8 |
| 20260901023107 | 80 | 175 | 0.0 | 1.0 | 0.00 | 0.00 | 0.00 | 84 | 1017.8 |
| 20260901022545 | 80 | 175 | 0.0 | 1.0 | 0.00 | 0.00 | 0.00 | 85 | 1017.7 |
| 20260901022046 | 80 | 0 | 0.0 | 0.0 | 0.00 | 0.00 | 0.00 | 85 | 1017.7 |
| 20260901021634 | 80 | 0 | 0.0 | 0.0 | 0.00 | 0.00 | 0.00 | 85 | 1017.6 |
| 20260901021047 | 80 | 0 | 0.0 | 0.0 | 0.00 | 0.00 | 0.00 | 85 | 1017.6 |
| 20260901020548 | 80 | 0 | 0.0 | 2.0 | 0.00 | 0.00 | 0.00 | 84 | 1017.6 |
| 20260901020114 | 80 | 0 | 0.0 | 2.0 | 0.00 | 0.00 | 0.00 | 84 | 1017.7 |
| 20260901015547 | 80 | 0 | 0.0 | 2.0 | 0.00 | 0.00 | 0.00 | 83 | 1017.6 |
| 20260901015049 | 80 | 0 | 0.0 | 1.0 | 0.00 | 0.00 | 0.00 | 83 | 1017.6 |
| 20260901014607 | 81 | 0 | 0.0 | 1.0 | 0.00 | 0.00 | 0.00 | 82 | 1017.4 |
| 20260901014045 | 81 | 0 | 0.0 | 1.0 | 0.00 | 0.00 | 0.00 | 82 | 1017.4 |
| 20260901013545 | 81 | 175 | 0.0 | 3.0 | 0.00 | 0.00 | 0.00 | 82 | 1017.4 |
| 20260901013113 | 81 | 0 | 0.0 | 3.0 | 0.00 | 0.00 | 0.00 | 81 | 1017.3 |
| 20260901012550 | 82 | 175 | 1.0 | 4.0 | 0.00 | 0.00 | 0.00 | 81 | 1017.3 |
| 20260901012044 | 82 | 175 | 1.0 | 4.0 | 0.00 | 0.00 | 0.00 | 81 | 1017.2 |
| 20260901011607 | 82 | 176 | 1.0 | 4.0 | 0.00 | 0.00 | 0.00 | 82 | 1017.2 |
| 20260901011044 | 82 | 186 | 1.0 | 5.0 | 0.00 | 0.00 | 0.00 | 82 | 1017.1 |
| 20260901010545 | 82 | 0 | 1.0 | 7.0 | 0.00 | 0.00 | 0.00 | 82 | 1017.0 |
| 20260901010109 | 82 | 186 | 3.0 | 7.0 | 0.00 | 0.00 | 0.00 | 81 | 1017.0 |
| 20260901005546 | 82 | 154 | 2.0 | 6.0 | 0.00 | 0.00 | 0.00 | 81 | 1016.9 |
| 20260901005046 | 83 | 175 | 2.0 | 6.0 | 0.00 | 0.00 | 0.00 | 81 | 1016.9 |
| 20260901004612 | 83 | 180 | 2.0 | 4.0 | 0.00 | 0.00 | 0.00 | 81 | 1016.9 |
| 20260901004046 | 83 | 199 | 1.0 | 3.0 | 0.00 | 0.00 | 0.00 | 81 | 1016.8 |
| 20260901003546 | 83 | 199 | 1.0 | 4.0 | 0.00 | 0.00 | 0.00 | 80 | 1016.8 |
| 20260901003123 | 83 | 199 | 0.0 | 4.0 | 0.00 | 0.00 | 0.00 | 80 | 1016.6 |
| 20260901002546 | 83 | 0 | 2.0 | 5.0 | 0.00 | 0.00 | 0.00 | 80 | 1016.6 |
| 20260901002045 | 83 | 189 | 1.0 | 5.0 | 0.00 | 0.00 | 0.00 | 80 | 1016.6 |
| 20260901001609 | 83 | 189 | 2.0 | 5.0 | 0.00 | 0.00 | 0.00 | 80 | 1016.6 |
| 20260901001044 | 83 | 192 | 2.0 | 5.0 | 0.00 | 0.00 | 0.00 | 79 | 1016.5 |
| 20260901000545 | 83 | 189 | 2.0 | 6.0 | 0.00 | 0.00 | 0.00 | 78 | 1016.4 |
| 20260901000059 | 83 | 188 | 3.0 | 8.0 | 0.00 | 0.00 | 0.00 | 78 | 1016.4 |
| 20260831235544 | 84 | 194 | 3.0 | 9.0 | 0.00 | 0.00 | 0.00 | 79 | 1016.5 |
| 20260831235045 | 84 | 182 | 4.0 | 9.0 | 0.00 | 0.00 | 0.00 | 79 | 1016.4 |
| 20260831234602 | 84 | 188 | 4.0 | 9.0 | 0.00 | 0.00 | 0.00 | 79 | 1016.5 |
| 20260831234045 | 84 | 207 | 3.0 | 8.0 | 0.00 | 0.00 | 0.00 | 78 | 1016.4 |
| 20260831233549 | 84 | 244 | 3.0 | 8.0 | 0.00 | 0.00 | 0.00 | 78 | 1016.3 |
| 20260831233059 | 84 | 195 | 4.0 | 7.0 | 0.00 | 0.00 | 0.00 | 77 | 1016.3 |
| 20260831232545 | 85 | 211 | 2.0 | 6.0 | 0.00 | 0.00 | 0.00 | 76 | 1016.3 |
| 20260831232045 | 85 | 186 | 2.0 | 7.0 | 0.00 | 0.00 | 0.00 | 76 | 1016.4 |
| 20260831231602 | 85 | 202 | 3.0 | 7.0 | 0.00 | 0.00 | 0.00 | 75 | 1016.5 |
| 20260831231048 | 86 | 197 | 2.0 | 6.0 | 0.00 | 0.00 | 0.00 | 75 | 1016.4 |
| 20260831230545 | 86 | 207 | 2.0 | 8.0 | 0.00 | 0.00 | 0.00 | 74 | 1016.5 |
| 20260831230104 | 86 | 210 | 2.0 | 9.0 | 0.00 | 0.00 | 0.00 | 74 | 1016.6 |
| 20260831225544 | 86 | 221 | 2.0 | 9.0 | 0.00 | 0.00 | 0.00 | 74 | 1016.4 |
| 20260831225044 | 87 | 202 | 4.0 | 10.0 | 0.00 | 0.00 | 0.00 | 72 | 1016.4 |
| 20260831224558 | 86 | 182 | 4.0 | 10.0 | 0.00 | 0.00 | 0.00 | 73 | 1016.5 |
| 20260831224048 | 86 | 223 | 4.0 | 10.0 | 0.00 | 0.00 | 0.00 | 73 | 1016.4 |
| 20260831223547 | 86 | 194 | 5.0 | 7.0 | 0.00 | 0.00 | 0.00 | 72 | 1016.3 |
| 20260831223055 | 87 | 221 | 2.0 | 8.0 | 0.00 | 0.00 | 0.00 | 74 | 1016.4 |
| 20260831222546 | 87 | 213 | 4.0 | 9.0 | 0.00 | 0.00 | 0.00 | 73 | 1016.3 |
| 20260831222048 | 88 | 197 | 4.0 | 9.0 | 0.00 | 0.00 | 0.00 | 72 | 1016.4 |
| 20260831221607 | 88 | 186 | 3.0 | 9.0 | 0.00 | 0.00 | 0.00 | 72 | 1016.4 |
| 20260831221045 | 88 | 200 | 3.0 | 9.0 | 0.00 | 0.00 | 0.00 | 72 | 1016.3 |
| 20260831220546 | 88 | 235 | 4.0 | 9.0 | 0.00 | 0.00 | 0.00 | 72 | 1016.4 |
| 20260831220118 | 88 | 188 | 4.0 | 9.0 | 0.00 | 0.00 | 0.00 | 71 | 1016.4 |
| 20260831215548 | 88 | 213 | 3.0 | 9.0 | 0.00 | 0.00 | 0.00 | 74 | 1016.4 |
| 20260831215046 | 87 | 213 | 2.0 | 9.0 | 0.00 | 0.00 | 0.00 | 74 | 1016.5 |
| 20260831214556 | 87 | 190 | 4.0 | 8.0 | 0.00 | 0.00 | 0.00 | 72 | 1016.5 |
| 20260831214046 | 87 | 198 | 4.0 | 8.0 | 0.00 | 0.00 | 0.00 | 73 | 1016.4 |
| 20260831213546 | 87 | 191 | 5.0 | 10.0 | 0.00 | 0.00 | 0.00 | 71 | 1016.4 |
| 20260831213053 | 88 | 203 | 5.0 | 10.0 | 0.00 | 0.00 | 0.00 | 71 | 1016.5 |
| 20260831212547 | 88 | 192 | 6.0 | 10.0 | 0.00 | 0.00 | 0.00 | 70 | 1016.4 |
| 20260831212045 | 88 | 207 | 3.0 | 8.0 | 0.00 | 0.00 | 0.00 | 69 | 1016.5 |
| 20260831211611 | 88 | 196 | 3.0 | 8.0 | 0.00 | 0.00 | 0.00 | 70 | 1016.3 |
| 20260831211044 | 88 | 192 | 4.0 | 8.0 | 0.00 | 0.00 | 0.00 | 70 | 1016.6 |
| 20260831210546 | 88 | 186 | 3.0 | 8.0 | 0.00 | 0.00 | 0.00 | 69 | 1016.5 |
| 20260831210100 | 88 | 192 | 3.0 | 8.0 | 0.00 | 0.00 | 0.00 | 70 | 1016.6 |
| 20260831205545 | 88 | 223 | 3.0 | 10.0 | 0.00 | 0.01 | 0.00 | 71 | 1016.5 |
| 20260831205045 | 87 | 230 | 4.0 | 10.0 | 0.00 | 0.01 | 0.00 | 71 | 1016.6 |
| 20260831204558 | 87 | 200 | 3.0 | 11.0 | 0.00 | 0.01 | 0.00 | 72 | 1016.6 |
| 20260831204045 | 88 | 192 | 5.0 | 12.0 | 0.00 | 0.01 | 0.00 | 73 | 1016.7 |
| 20260831203545 | 88 | 242 | 6.0 | 12.0 | 0.00 | 0.01 | 0.00 | 75 | 1016.6 |
| 20260831203100 | 89 | 173 | 3.0 | 11.0 | 0.00 | 0.01 | 0.00 | 72 | 1016.5 |
| 20260831202545 | 88 | 198 | 6.0 | 11.0 | 0.00 | 0.01 | 0.00 | 73 | 1016.7 |
| 20260831202046 | 88 | 209 | 4.0 | 10.0 | 0.00 | 0.01 | 0.00 | 72 | 1016.8 |
| 20260831201558 | 88 | 205 | 5.0 | 10.0 | 0.00 | 0.01 | 0.00 | 71 | 1016.8 |
| 20260831201048 | 89 | 189 | 3.0 | 10.0 | 0.00 | 0.01 | 0.00 | 72 | 1016.7 |
| 20260831200544 | 89 | 190 | 4.0 | 11.0 | 0.00 | 0.01 | 0.00 | 71 | 1016.6 |
| 20260831200056 | 89 | 193 | 6.0 | 11.0 | 0.00 | 0.01 | 0.00 | 70 | 1016.7 |
| 20260831195549 | 90 | 165 | 4.0 | 12.0 | 0.00 | 0.22 | 0.00 | 72 | 1016.8 |
| 20260831195046 | 90 | 177 | 6.0 | 12.0 | 0.00 | 0.22 | 0.00 | 70 | 1016.7 |
| 20260831194635 | 90 | 182 | 5.0 | 11.0 | 0.00 | 0.22 | 0.00 | 69 | 1016.8 |
| 20260831194049 | 89 | 192 | 5.0 | 10.0 | 0.00 | 0.22 | 0.00 | 72 | 1016.7 |
| 20260831193545 | 88 | 164 | 5.0 | 10.0 | 0.00 | 0.22 | 0.00 | 71 | 1016.8 |
| 20260831193058 | 88 | 182 | 4.0 | 15.0 | 0.00 | 0.22 | 0.00 | 71 | 1016.7 |
| 20260831192545 | 88 | 185 | 5.0 | 15.0 | 0.00 | 0.22 | 0.00 | 70 | 1016.8 |
| 20260831192044 | 90 | 190 | 5.0 | 15.0 | 0.00 | 0.22 | 0.00 | 67 | 1016.9 |
| 20260831191558 | 93 | 157 | 1.0 | 9.0 | 0.00 | 0.22 | 0.00 | 62 | 1017.0 |
| 20260831191046 | 92 | 122 | 4.0 | 9.0 | 0.00 | 0.22 | 0.00 | 62 | 1017.0 |
| 20260831190544 | 90 | 88 | 2.0 | 6.0 | 0.00 | 0.22 | 0.00 | 63 | 1017.1 |
| 20260831190106 | 89 | 97 | 1.0 | 8.0 | 0.00 | 0.22 | 0.00 | 66 | 1017.2 |
| 20260831185545 | 89 | 98 | 3.0 | 11.0 | 0.00 | 0.22 | 0.00 | 64 | 1017.3 |
| 20260831185045 | 91 | 87 | 3.0 | 11.0 | 0.00 | 0.22 | 0.00 | 61 | 1017.3 |
| 20260831184628 | 91 | 65 | 6.0 | 11.0 | 0.00 | 0.22 | 0.00 | 62 | 1017.3 |
| 20260831184044 | 90 | 53 | 2.0 | 9.0 | 0.00 | 0.22 | 0.00 | 63 | 1017.4 |
| 20260831183603 | 90 | 31 | 4.0 | 9.0 | 0.00 | 0.22 | 0.00 | 62 | 1017.3 |
| 20260831183109 | 91 | 47 | 2.0 | 9.0 | 0.00 | 0.22 | 0.00 | 62 | 1017.4 |
| 20260831182546 | 92 | 69 | 1.0 | 10.0 | 0.00 | 0.22 | 0.00 | 61 | 1017.4 |
| 20260831182046 | 92 | 93 | 6.0 | 12.0 | 0.00 | 0.22 | 0.00 | 61 | 1017.6 |
| 20260831181603 | 91 | 76 | 6.0 | 12.0 | 0.00 | 0.22 | 0.00 | 64 | 1017.5 |
| 20260831181046 | 90 | 79 | 5.0 | 11.0 | 0.00 | 0.22 | 0.00 | 65 | 1017.7 |
| 20260831180548 | 91 | 137 | 4.0 | 10.0 | 0.00 | 0.22 | 0.00 | 66 | 1017.7 |
| 20260831180108 | 90 | 112 | 4.0 | 11.0 | 0.00 | 0.22 | 0.00 | 67 | 1017.9 |
| 20260831175551 | 89 | 63 | 5.0 | 11.0 | 0.00 | 0.22 | 0.00 | 63 | 1017.7 |
| 20260831175047 | 91 | 69 | 3.0 | 12.0 | 0.00 | 0.22 | 0.00 | 67 | 1017.7 |
| 20260831174609 | 91 | 86 | 6.0 | 12.0 | 0.00 | 0.22 | 0.00 | 69 | 1017.8 |
| 20260831174046 | 91 | 46 | 6.0 | 11.0 | 0.00 | 0.22 | 0.00 | 65 | 1017.8 |
| 20260831173547 | 90 | 32 | 5.0 | 14.0 | 0.00 | 0.22 | 0.00 | 65 | 1017.9 |
| 20260831173104 | 89 | 66 | 5.0 | 14.0 | 0.00 | 0.22 | 0.00 | 66 | 1018.0 |
| 20260831172543 | 90 | 45 | 5.0 | 14.0 | 0.00 | 0.22 | 0.00 | 65 | 1018.1 |
| 20260831172047 | 89 | 99 | 4.0 | 10.0 | 0.00 | 0.22 | 0.00 | 68 | 1018.3 |
| 20260831171608 | 88 | 49 | 3.0 | 10.0 | 0.00 | 0.22 | 0.00 | 67 | 1018.3 |
| 20260831171047 | 89 | 88 | 3.0 | 10.0 | 0.00 | 0.22 | 0.00 | 71 | 1018.3 |
| 20260831170548 | 89 | 134 | 4.0 | 11.0 | 0.00 | 0.22 | 0.00 | 68 | 1018.3 |
| 20260831165542 | 88 | 84 | 6.0 | 13.0 | 0.00 | 0.22 | 0.00 | 70 | 1018.4 |
| 20260831165042 | 87 | 104 | 4.0 | 11.0 | 0.00 | 0.22 | 0.00 | 74 | 1018.4 |
| 20260831164600 | 86 | 100 | 4.0 | 11.0 | 0.00 | 0.22 | 0.00 | 71 | 1018.5 |
| 20260831164043 | 88 | 117 | 6.0 | 13.0 | 0.00 | 0.22 | 0.00 | 69 | 1018.4 |
| 20260831163547 | 88 | 84 | 4.0 | 13.0 | 0.00 | 0.22 | 0.00 | 70 | 1018.5 |
| 20260831163102 | 89 | 84 | 3.0 | 11.0 | 0.00 | 0.22 | 0.00 | 70 | 1018.4 |
| 20260831162544 | 87 | 130 | 5.0 | 11.0 | 0.00 | 0.22 | 0.00 | 71 | 1018.3 |
| 20260831162043 | 87 | 109 | 5.0 | 12.0 | 0.00 | 0.22 | 0.00 | 72 | 1018.3 |
| 20260831161554 | 87 | 71 | 6.0 | 13.0 | 0.00 | 0.22 | 0.00 | 71 | 1018.5 |
| 20260831161042 | 88 | 79 | 5.0 | 13.0 | 0.00 | 0.22 | 0.00 | 70 | 1018.5 |
| 20260831160545 | 88 | 9 | 6.0 | 12.0 | 0.00 | 0.22 | 0.00 | 75 | 1018.6 |
| 20260831160100 | 88 | 40 | 6.0 | 12.0 | 0.00 | 0.22 | 0.00 | 71 | 1018.7 |
| 20260831155548 | 88 | 86 | 3.0 | 9.0 | 0.00 | 0.22 | 0.00 | 73 | 1018.7 |
| 20260831155049 | 87 | 46 | 4.0 | 9.0 | 0.00 | 0.22 | 0.00 | 74 | 1018.7 |
| 20260831154617 | 86 | 112 | 5.0 | 9.0 | 0.00 | 0.22 | 0.00 | 75 | 1018.6 |
| 20260831154047 | 86 | 84 | 4.0 | 11.0 | 0.00 | 0.22 | 0.00 | 74 | 1018.7 |
| 20260831153544 | 86 | 54 | 5.0 | 11.0 | 0.00 | 0.22 | 0.00 | 75 | 1018.9 |
| 20260831153350 | 86 | 65 | 7.0 | 11.0 | 0.00 | 0.22 | 0.00 | 75 | 1018.9 |
| 20260831152637 | 88 | 83 | 5.0 | 9.0 | 0.00 | 0.22 | 0.00 | 74 | 1018.9 |
| 20260831152046 | 87 | 111 | 5.0 | 11.0 | 0.00 | 0.22 | 0.00 | 75 | 1018.9 |
| 20260831151605 | 86 | 91 | 6.0 | 11.0 | 0.00 | 0.22 | 0.00 | 76 | 1018.8 |
| 20260831151044 | 86 | 69 | 5.0 | 11.0 | 0.00 | 0.22 | 0.00 | 77 | 1018.8 |
| 20260831150544 | 85 | 76 | 5.0 | 12.0 | 0.00 | 0.22 | 0.00 | 78 | 1018.8 |
| 20260831150057 | 85 | 60 | 6.0 | 12.0 | 0.00 | 0.22 | 0.00 | 78 | 1018.8 |
| 20260831145545 | 85 | 96 | 5.0 | 12.0 | 0.00 | 0.22 | 0.00 | 81 | 1018.8 |
| 20260831145051 | 84 | 64 | 5.0 | 9.0 | 0.00 | 0.22 | 0.00 | 78 | 1018.9 |
| 20260831144635 | 84 | 55 | 5.0 | 10.0 | 0.00 | 0.22 | 0.00 | 79 | 1018.9 |
| 20260831144045 | 84 | 74 | 5.0 | 12.0 | 0.00 | 0.22 | 0.00 | 77 | 1018.8 |
| 20260831143546 | 85 | 91 | 3.0 | 12.0 | 0.00 | 0.22 | 0.00 | 79 | 1018.8 |
| 20260831143100 | 84 | 115 | 6.0 | 12.0 | 0.00 | 0.22 | 0.00 | 79 | 1018.8 |
| 20260831142545 | 84 | 37 | 5.0 | 10.0 | 0.00 | 0.22 | 0.00 | 79 | 1018.7 |
| 20260831142045 | 84 | 59 | 6.0 | 11.0 | 0.00 | 0.22 | 0.00 | 79 | 1018.7 |
| 20260831141557 | 84 | 84 | 4.0 | 11.0 | 0.00 | 0.22 | 0.00 | 80 | 1018.6 |
| 20260831141045 | 84 | 52 | 4.0 | 11.0 | 0.00 | 0.22 | 0.00 | 80 | 1018.5 |
| 20260831140546 | 83 | 56 | 5.0 | 10.0 | 0.00 | 0.22 | 0.00 | 80 | 1018.4 |
| 20260831140056 | 83 | 93 | 4.0 | 10.0 | 0.00 | 0.22 | 0.00 | 81 | 1018.4 |
| 20260831135546 | 83 | 78 | 5.0 | 10.0 | 0.00 | 0.22 | 0.00 | 81 | 1018.4 |
| 20260831135045 | 83 | 86 | 5.0 | 10.0 | 0.00 | 0.22 | 0.00 | 81 | 1018.4 |
| 20260831134557 | 83 | 113 | 5.0 | 10.0 | 0.00 | 0.22 | 0.00 | 81 | 1018.5 |
| 20260831134047 | 82 | 86 | 4.0 | 10.0 | 0.00 | 0.22 | 0.00 | 82 | 1018.4 |
| 20260831133545 | 82 | 94 | 5.0 | 10.0 | 0.00 | 0.22 | 0.00 | 82 | 1018.4 |
| 20260831133058 | 82 | 114 | 5.0 | 9.0 | 0.00 | 0.22 | 0.00 | 82 | 1018.4 |
| 20260831132545 | 81 | 83 | 3.0 | 10.0 | 0.00 | 0.22 | 0.00 | 83 | 1018.3 |
| 20260831132046 | 81 | 78 | 3.0 | 10.0 | 0.00 | 0.22 | 0.00 | 83 | 1018.3 |
| 20260831131557 | 81 | 67 | 4.0 | 9.0 | 0.00 | 0.22 | 0.00 | 83 | 1018.3 |
| 20260831131045 | 80 | 48 | 2.0 | 8.0 | 0.00 | 0.22 | 0.00 | 84 | 1018.3 |
| 20260831130545 | 80 | 80 | 5.0 | 8.0 | 0.00 | 0.22 | 0.00 | 85 | 1018.4 |
| 20260831130101 | 79 | 96 | 4.0 | 8.0 | 0.00 | 0.22 | 0.00 | 85 | 1018.3 |
| 20260831125548 | 79 | 80 | 3.0 | 10.0 | 0.00 | 0.22 | 0.00 | 87 | 1018.2 |
| 20260831125045 | 78 | 103 | 5.0 | 10.0 | 0.00 | 0.22 | 0.00 | 87 | 1018.1 |
| 20260831124556 | 78 | 95 | 4.0 | 10.0 | 0.00 | 0.22 | 0.00 | 88 | 1018.1 |
| 20260831124045 | 78 | 80 | 3.0 | 8.0 | 0.00 | 0.22 | 0.00 | 89 | 1018.1 |
| 20260831123545 | 77 | 76 | 3.0 | 7.0 | 0.00 | 0.22 | 0.00 | 90 | 1018.0 |
| 20260831123057 | 77 | 98 | 3.0 | 7.0 | 0.00 | 0.22 | 0.00 | 90 | 1017.9 |
| 20260831122545 | 76 | 80 | 3.0 | 8.0 | 0.00 | 0.22 | 0.00 | 91 | 1017.9 |
| 20260831122045 | 76 | 126 | 4.0 | 10.0 | 0.00 | 0.22 | 0.00 | 91 | 1017.9 |
| 20260831121605 | 75 | 88 | 5.0 | 10.0 | 0.00 | 0.22 | 0.00 | 91 | 1017.9 |
| 20260831121043 | 75 | 108 | 3.0 | 11.0 | 0.00 | 0.22 | 0.00 | 91 | 1017.8 |
| 20260831120548 | 75 | 87 | 5.0 | 11.0 | 0.00 | 0.22 | 0.00 | 91 | 1017.8 |
| 20260831120100 | 75 | 112 | 3.0 | 8.0 | 0.00 | 0.22 | 0.00 | 91 | 1017.8 |
| 20260831115544 | 74 | 59 | 3.0 | 8.0 | 0.00 | 0.22 | 0.00 | 91 | 1017.8 |
| 20260831115045 | 74 | 57 | 2.0 | 8.0 | 0.00 | 0.22 | 0.00 | 91 | 1017.8 |
| 20260831114558 | 74 | 45 | 4.0 | 8.0 | 0.00 | 0.22 | 0.00 | 91 | 1017.7 |
| 20260831114047 | 74 | 38 | 3.0 | 8.0 | 0.00 | 0.22 | 0.00 | 91 | 1017.6 |
| 20260831113546 | 74 | 81 | 3.0 | 8.0 | 0.00 | 0.22 | 0.00 | 91 | 1017.4 |
| 20260831113107 | 74 | 101 | 2.0 | 7.0 | 0.00 | 0.22 | 0.00 | 91 | 1017.3 |
| 20260831112545 | 74 | 89 | 2.0 | 7.0 | 0.00 | 0.22 | 0.00 | 91 | 1017.3 |
| 20260831112045 | 74 | 93 | 3.0 | 7.0 | 0.00 | 0.22 | 0.00 | 91 | 1017.4 |
| 20260831111615 | 74 | 32 | 3.0 | 9.0 | 0.00 | 0.22 | 0.00 | 91 | 1017.4 |
| 20260831111046 | 74 | 84 | 3.0 | 9.0 | 0.00 | 0.22 | 0.00 | 90 | 1017.3 |
| 20260831110549 | 74 | 76 | 2.0 | 9.0 | 0.00 | 0.22 | 0.00 | 91 | 1017.2 |
| 20260831110137 | 74 | 73 | 3.0 | 7.0 | 0.00 | 0.22 | 0.00 | 90 | 1017.1 |
| 20260831105546 | 74 | 76 | 2.0 | 6.0 | 0.00 | 0.22 | 0.00 | 90 | 1017.1 |
| 20260831105046 | 74 | 80 | 3.0 | 6.0 | 0.00 | 0.22 | 0.00 | 90 | 1017.0 |
| 20260831104602 | 74 | 84 | 2.0 | 7.0 | 0.00 | 0.22 | 0.00 | 90 | 1016.8 |